This demonstration page uses our WeatherBlox Daily Observations layout. Learn more.

Left ArrowRight Arrow

41.86663, -103.66717

Hourly Observations for September 18, 2021

Temp ( °F °C ) Dew Point ( °F °C ) Humidity (%) Winds ( mph kmh ) Pressure ( in mb ) Visibility ( mi km ) Precip ( " mm )
12:53 am 00:53 Clear 52 11.1 45 7.2 77 77 E 6 9 30.09 1019 10 16 N/A
1:53 am 01:53 Clear 52 11.1 45 7.2 77 77 E 5 7 30.08 1019 10 16 N/A
2:53 am 02:53 Clear 52 11.1 47 8.3 83 83 ENE 10 17 30.06 1018 10 16 N/A
3:53 am 03:53 Clear 56 13.3 49 9.4 77 77 ESE 8 13 30.04 1017 10 16 N/A
4:53 am 04:53 Clear 53 11.7 48 8.9 83 83 E 9 15 30.03 1017 10 16 N/A
5:53 am 05:53 Clear 51 10.6 47 8.3 86 86 undefined N/A 30.03 1017 10 16 N/A
6:53 am 06:53 Sunny 50 10 46 7.8 86 86 E 6 9 30.04 1017 10 16 N/A
7:53 am 07:53 Sunny 55 12.8 49 9.4 80 80 E 7 11 30.04 1017 10 16 N/A
8:53 am 08:53 Sunny 60 15.6 50 10 70 70 E 7 11 30.02 1017 10 16 N/A
9:53 am 09:53 Sunny 68 20 49 9.4 51 51 VRB 3 6 30.01 1016 10 16 N/A
10:53 am 10:53 Sunny 75 23.9 45 7.2 34 34 N N/A 29.98 1015 10 16 N/A
11:53 am 11:53 Sunny 83 28.3 41 5 23 23 VRB 3 6 29.93 1014 10 16 N/A
12:53 pm 12:53 Sunny 91 32.8 39 3.9 16 16 ESE 8 13 29.88 1012 10 16 N/A
1:53 pm 13:53 Sunny 93 33.9 29 -1.7 10 10 N N/A 29.84 1011 10 16 N/A
2:53 pm 14:53 Sunny 95 35 29 -1.7 9 9 ESE 10 17 29.80 1009 10 16 N/A
3:53 pm 15:53 Sunny 95 35 27 -2.8 9 9 SE 15 24 29.77 1008 10 16 N/A
4:53 pm 16:53 Sunny 96 35.6 21 -6.1 6 6 SSW 10 17 29.75 1007 10 16 N/A
5:53 pm 17:53 Sunny 90 32.2 34 1.1 14 14 S 12 19 29.75 1007 10 16 N/A
6:53 pm 18:53 Sunny 84 28.9 32 undefined 15 15 SSE 9 15 29.77 1008 10 16 N/A
7:53 pm 19:53 Clear 73 22.8 42 5.6 33 33 E 9 15 29.80 1009 10 16 N/A
8:53 pm 20:53 Clear 68 20 46 7.8 45 45 NW 8 13 29.84 1011 10 16 N/A
9:53 pm 21:53 Clear 66 18.9 48 8.9 52 52 undefined N/A 29.82 1010 10 16 N/A
10:53 pm 22:53 Clear 66 18.9 47 8.3 50 50 undefined N/A 29.78 1009 10 16 N/A
11:53 pm 23:53 Clear 65 18.3 46 7.8 51 51 E 6 9 29.77 1008 10 16 N/A

Powered by AerisWeather